星链-2628 (STARLINK-2628 )

导读

STARLINK-2628是美国SpaceX公司星链(Starlink)星座的成员卫星,于2021年5月4日发射入轨。星链星座旨在为全球提供低延迟、高速率的卫星互联网服务,STARLINK-2628承担着组网扩容职责,助力覆盖偏远地区与基础网络薄弱区域,推动全球互联网接入普惠化进程,是SpaceX低轨卫星通信布局的重要节点。

基本信息
目录编号:
48359
目录名称:
STARLINK-2628
国际标识:
2021-038G
轨道中心:
EARTH
卫星名称:
星链-2628
卫星全名:
星链-2628 (STARLINK-2628 )
卫星状态:
在轨 (已飞行1949 天)
发射日期:
2021-05-04 UTC
国别 :
美国 (US)
星等 :
--
轨道信息
数据来源 国际轨道数据
星历时间: 2026-09-02T15:41:21+0800
1天前
查看轨道信息
半长轴: 6847.697km
偏心率: 0.0001289
轨道倾角: 53.157°
近地点辐角 70.209°
升交点赤经 256.486°
平近点角 289.905°
近地点: 468.677km
远地点: 470.443km
周期: 93.989分钟
每日圈数: 15.320961
详细信息
固有亮度:
5
最大亮度:
2.5
卫星平台:
Starlink V1.0
覆盖范围:
全球
运营商:
太空探索技术公司
运营商所在国:
美国
制造商(研发单位):
太空探索技术公司
制造商所在国:
美国
使用方式:
暂无
卫星简介
星链(Starlink)计划是由太空探索技术公司(SpaceX)提出的一个巨型低轨卫星互联网星座项目,计划在2019年至2024年间在太空搭建由约1.2万颗卫星组成的“星链”网络,其中1584颗将部署在地球上空550千米处的近地轨道,并从2020年开始工作。该卫星仍在工作。
2D轨道图
3D轨道图
轨道高度分析图
轨道倾角分析图
轨道综合分析图
查看轨道综合分析图
交会数据列表
事件ID 空间交会对象 最接近时刻(TCA) 交会距离 交会风险概率(CRP) 交会风险指数(CRI) 操作
CDM_260904-084104-835906-831321
2026-09-04T
08:41:12+0000
1.339 km
极远距离
9.194662E-6 低风险 0.54
CDM_260903-095404-835906-392621
2026-09-03T
09:54:02+0000
1.204 km
极远距离
8.817892E-6 低风险 0.54
CDM_260904-024104-813304-835922
2026-09-04T
02:41:37+0000
1.360 km
极远距离
8.132726E-6 低风险 0.53
CDM_260903-173804-835906-518923
2026-09-03T
17:38:12+0000
1.456 km
极远距离
7.033661E-6 低风险 0.52
CDM_260904-184004-835906-873122
2026-09-04T
18:40:51+0000
1.589 km
极远距离
5.309429E-6 低风险 0.5
CDM_260904-132804-835904-867821
2026-09-04T
13:28:26+0000
1.516 km
极远距离
4.875561E-6 低风险 0.49
CDM_260903-030504-835904-857822
2026-09-03T
03:05:19+0000
1.595 km
极远距离
4.512606E-6 低风险 0.48
CDM_260904-233704-835906-803621
2026-09-04T
23:37:50+0000
1.514 km
极远距离
4.2984E-6 低风险 0.48
CDM_260903-101204-811704-835922
2026-09-03T
10:12:44+0000
1.649 km
极远距离
4.283475E-6 低风险 0.48
CDM_260905-050604-835906-803621
2026-09-05T
05:06:49+0000
1.517 km
极远距离
4.234316E-6 低风险 0.48